Tracking 28091 objects as of 30-Sep-2023
HD Live streaming from Space Station
objects crossing your sky now

INTELSAT 505

Track INTELSAT 505 now!
INTELSAT 505 is classified as:


NORAD ID: 13595
Int'l Code: 1982-097A
Perigee: 36,273.1 km
Apogee: 36,377.8 km
Inclination: 13.4 °
Period: 1,463.3 minutes
Semi major axis: 42696 km
RCS: 0.1428 m2 (medium)
Launch date: September 28, 1982
Source: International Telecommunications Satellite Organization (ITSO)
Launch site: AIR FORCE EASTERN TEST RANGE (AFETR)
Your satellite tracking list
Your tracking list is empty




NASA's NSSDC Master Catalog

Two Line Element Set (TLE):
1 13595U 82097A   23272.41733722 -.00000032  00000-0  00000-0 0  9990
2 13595  13.3559 338.0215 0012261  32.0465  52.4802  0.98404575118277
Source of the keplerian elements: AFSPC